Regional Weather Roundup
Issued by NWS

Home | Current Version | Previous Version | Graphics & Text | Print | Product List | Glossary Off
Versions: 1 2 3 4 5 6 7 8 9 10 11 12 13 14 15 16 17 18 19 20 21 22 23 24 25 26 27 28 29 30 31 32 33 34 35 36 37 38 39 40 41 42 43 44 45 46 47 48 49 50

000
ASUS43 KIND 280609
RWRIN

WEATHER ROUNDUP FOR INDIANA
NATIONAL WEATHER SERVICE INDIANAPOLIS IN
200 AM EDT THU MAY 28 2015

NOTE: "FAIR" INDICATES FEW OR NO CLOUDS BELOW 12,000 FEET WITH NO
SIGNIFICANT WEATHER AND/OR OBSTRUCTIONS TO VISIBILITY.

* - STATION DOES NOT REPORT WEATHER SUCH AS PRECIPITATION OR FOG.

+ - STATION NOT QUALITY CONTROLLED BY THE NATIONAL WEATHER SERVICE.
    USE DATA WITH CAUTION...ESPECIALLY DEWPOINT AND RELATIVE
    HUMIDITY OBSERVATIONS.

INZ001>003-010>013-019-020-280700-
NORTHWEST INDIANA

CITY           SKY/WX    TMP DP  RH WIND       PRES   REMARKS
GARY /AIRPORT/ CLEAR     56  56  98 CALM      30.16R
KNOX *+        CLEAR     54  54 100 CALM      30.15S
LA PORTE +     CLEAR     55  55 100 CALM      30.17R
6HR MIN TEMP:  55; 6HR MAX TEMP:  70;

MICHIGAN CITY+ CLEAR     52  52 100 CALM      30.17R FOG
MONTICELLO +   CLEAR     59  57  93 CALM      30.16R
6HR MIN TEMP:  59; 6HR MAX TEMP:  76;

RENSSELAER +   CLEAR     59  55  88 CALM      30.17R
VALPARAISO     CLEAR     57  53  86 CALM      30.16R
6HR MIN TEMP:  57; 6HR MAX TEMP:  71;


$$

LMZ046-743>745-280700-
SOUTHERN LAKE MICHIGAN

STATION/POSITION TIME  TEMP    WIND        PRES    WAVE
                       AIR SEA DIR/SP/G            HT
                 (UTC) (F)     (DEG/KT/KT) (MB)    (FT)
BURNS HARBOR     0600   60     180/  3/  4 1021.7R
MICHIGAN CITY    0600   59     120/  5/  6   N/A
5NW MICH CITY    0600   55 53  200/  4/  6   N/A     0

$$

INZ004-005-014>016-021>024-280700-
NORTH CENTRAL INDIANA

CITY           SKY/WX    TMP DP  RH WIND       PRES   REMARKS
GOSHEN         CLEAR     56  54  93 CALM      30.16R
6HR MIN TEMP:  55; 6HR MAX TEMP:  69;

LOGANSPORT +   PTCLDY    57  52  82 N5        30.16R
PERU/GRISSOM   PTCLDY    58  55  89 CALM      30.15R
6HR MIN TEMP:  58; 6HR MAX TEMP:  72;

ROCHESTER +    CLEAR     59  55  88 CALM      30.17R
SOUTH BEND     CLEAR     56  52  86 CALM      30.17R
6HR MIN TEMP:  54; 6HR MAX TEMP:  69;

WARSAW +       CLEAR     55  54  94 NW3       30.16R

$$

INZ006>009-017-018-025>027-280700-
NORTHEAST INDIANA

CITY           SKY/WX    TMP DP  RH WIND       PRES   REMARKS
ANGOLA *+      CLEAR     57  55  94 N5        30.15R
AUBURN +       CLEAR     55  54  94 CALM      30.16R
FORT WAYNE     PTCLDY    59  56  89 CALM      30.16R
6HR MIN TEMP:  59; 6HR MAX TEMP:  72;

HUNTINGTON +   CLEAR     56  54  95 CALM      30.16R
6HR MIN TEMP:  55; 6HR MAX TEMP:  71;


$$

INZ028-029-035-036-043>045-051>053-280700-
WEST CENTRAL INDIANA

CITY           SKY/WX    TMP DP  RH WIND       PRES   REMARKS
CRAWFORDSVL +  CLEAR     60  53  78 E3        30.16R
6HR MIN TEMP:  59; 6HR MAX TEMP:  75;

GREENCASTLE +  MOCLDY    63  55  77 N6        30.16S
LAFAYETTE      CLEAR     57  55  93 CALM      30.16R
6HR MIN TEMP:  57; 6HR MAX TEMP:  75;

TERRE HAUTE    PTCLDY    62  59  90 CALM      30.15R
6HR MIN TEMP:  62; 6HR MAX TEMP:  79;


$$

INZ030>032-037>040-046>048-054>057-064-065-280700-
CENTRAL INDIANA

CITY           SKY/WX    TMP DP  RH WIND       PRES   REMARKS
CP ATTERBURY + MOCLDY    63  63 100 CALM      30.16S
FISHERS *+     MOCLDY    61  61 100 CALM      30.16R
FRANKFORT +    CLEAR     61  61 100 CALM      30.18R
6HR MIN TEMP:  60; 6HR MAX TEMP:  75;

GREENWOOD *+   MOCLDY    68  61  77 NW6       30.17R
INDIANAPOLIS   MOCLDY    66  59  78 NE7       30.14R
6HR MIN TEMP:  66; 6HR MAX TEMP:  71; 6HR PCP:  0.03;

-EAGLE CREEK   PTCLDY    64  60  87 N3        30.15R
6HR MIN TEMP:  64; 6HR MAX TEMP:  69; 6HR PCP:  0.03;

KOKOMO *+      PTCLDY    59  55  88 CALM      30.16R
6HR MIN TEMP:  59; 6HR MAX TEMP:  73;

MARION +       PTCLDY    61  57  87 CALM      30.17R
SHELBYVILLE    MOCLDY    69  65  86 S9        30.15R
6HR MIN TEMP:  69; 6HR MAX TEMP:  79;

ZIONSVILLE +   PTCLDY    62  57  86 CALM      30.18R
6HR MIN TEMP:  61; 6HR MAX TEMP:  71;


$$

INZ033-034-041-042-049-050-058-059-280700-
EAST CENTRAL INDIANA

CITY           SKY/WX    TMP DP  RH WIND       PRES   REMARKS
MUNCIE         MOCLDY    64  60  87 NW5       30.16R
6HR MIN TEMP:  64; 6HR MAX TEMP:  72;


$$

INZ060-061-067>069-081>083-085>088-280700-
SOUTHWEST INDIANA

CITY           SKY/WX    TMP DP  RH WIND       PRES   REMARKS
EVANSVILLE     MOCLDY    67  64  90 SW5       30.16R
6HR MIN TEMP:  67; 6HR MAX TEMP:  75;

HUNTINGBURG *+ MOCLDY    64  61  88 S5        30.16S
6HR MIN TEMP:  64; 6HR MAX TEMP:  73;

WASHINGTON +   CLOUDY    66  62  87 SE5       30.15R
6HR MIN TEMP:  66; 6HR MAX TEMP:  76;


$$

INZ062-063-066-070>080-084-089>092-280700-
SOUTH CENTRAL AND SOUTHEAST INDIANA

CITY           SKY/WX    TMP DP  RH WIND       PRES   REMARKS
BLOOMINGTON    MOCLDY    66  63  90 CALM      30.15S
6HR MIN TEMP:  66; 6HR MAX TEMP:  77;

NORTH VERNON + MOCLDY    64  64 100 CALM      30.16S
SEYMOUR +      MOCLDY    64  61  88 SE3       30.15S

$$



USA.gov is the U.S. government's official web portal to all federal, state and local government web resources and services.